Terminal Aerodrome Forecast
Issued by NWS Greer, SC

Home | Current Version | Previous Version | Text Only | Print | Product List | Glossary On
Versions: 1 2 3 4 5 6 7 8 9 10 11 12 13 14 15 16 17 18 19 20 21 22 23 24 25 26 27 28 29 30 31 32 33 34 35 36 37 38 39 40 41 42 43 44 45 46 47 48 49 50
000
FTUS42 KGSP 021136
TAFCLT
TAF
KCLT 021136Z 0212/0312 25003KT 1/2SM FG OVC002
     FM021500 29004KT 2SM BR BKN003
     FM021600 33005KT P6SM SCT006 BKN045
      TEMPO 0216/0217 BKN006 OVC045
     FM030500 06008KT P6SM OVC025=

USA.gov is the U.S. government's official web portal to all federal, state and local government web resources and services.